Terug naar catalogus

STARLINK-3918

ActiefCommunicatieVLEO
NORAD 52486·PAYLOAD·🇺🇸 United States

Gelanceerd May 6, 2022 vanaf Cape Canaveral Space Force Station

Loading…

Volgende Passages (komende 24 uur)

TLE

VersSource: CelesTrak SupGP

Epoch: Sep 14, 2026, 21:34 UTC

1 52486C 22049AM  26257.89909722  .00043552  00000+0  12869-2 0  2573
2 52486  53.1566 279.5544 0001130  90.9447 313.7241 15.34365258    11

Volg STARLINK-3918 in realtime met AllMySat

Download on the App Store